User: anonymous   Login
Location: Unspecified
(0.0000°N, 0.0000°E)
Time: 02:04:17
(UTC+00:00)
Language:

NAVSTAR 64 (USA 206) - Orbit

View from above orbital plane
View from above orbital plane
View from above satellite
View from above satellite

Ground track
Ground track

The orbit data is extracted from the following two-line orbital elements,

1 35752U 09043A   15210.15800138  .00000056  00000-0  00000+0 0  9993
2 35752 054.2319 187.4496 0041624 018.8794 142.7451 02.00570863 43597
Epoch (UTC): 29 July 2015 03:47:31
Eccentricity: 0.0041624
inclination: 54.2319°
perigee height: 20071 km
apogee height: 20292 km
right ascension of ascending node: 187.4496°
argument of perigee: 18.8794°
revolutions per day: 2.00570863
mean anomaly at epoch: 142.7451°
orbit number at epoch: 4359

The dashed part of the orbit path shows where the satellite is in the earth's shadow,  

DLR